Regional Weather Roundup
Issued by NWS

Home | Current Version | Previous Version | Text Only | Print | Product List | Glossary Off
Versions: 1 2 3 4 5 6 7 8 9 10 11 12 13 14 15 16 17 18 19 20 21 22 23 24 25 26 27 28 29 30 31 32 33 34 35 36 37 38 39 40 41 42 43 44 45 46 47 48 49 50

000
ASUS43 KMPX 221401
RWRMN
WEATHER ROUNDUP FOR MINNESOTA
NATIONAL WEATHER SERVICE TWIN CITIES/CHANHASSEN MN
900 AM CDT SUN OCT 22 2017


NOTE: "FAIR" INDICATES FEW OR NO CLOUDS BELOW 12,000 FEET WITH NO
SIGNIFICANT WEATHER AND/OR OBSTRUCTIONS TO VISIBILITY. N/A MEANS
CURRENT SKY AND/OR WEATHER CONDITIONS ARE NOT AVAILABLE.

MNZ060>063-068>070-221500-
   Twin Cities Metro

CITY           SKY/WX    TMP DP  RH WIND       PRES   REMARKS
TWIN CITIES    CLOUDY    49  42  77 W9        29.98R
ST PAUL        CLOUDY    49  42  77 W8        29.98R
CRYSTAL        CLOUDY    48  38  68 W7        29.96R
BLAINE         PTSUNNY   50  41  71 W6        29.96R
LAKEVILLE      CLOUDY    46  41  81 W5        29.98S
EDEN PRAIRIE   PTSUNNY   48  41  76 W6        29.96S
SOUTH ST PAUL  CLOUDY    49  41  75 W8        29.97S
LAKE ELMO      FAIR      50  43  76 W6        29.98R
$$
MNZ001>005-007-008-013>017-022>024-027-028-221500-
   Northwest Minnesota

CITY           SKY/WX    TMP DP  RH WIND       PRES   REMARKS
BEMIDJI        SUNNY     43  34  71 SW8G17    29.82R
HALLOCK        CLEAR     43  36  75 SW15      29.72S
ROSEAU         CLEAR     45  37  76 SW15G21   29.71R
CROOKSTON      CLEAR     43  34  70 SW15      29.82R
FOSSTON        CLEAR     39  34  81 SW13      29.85R
DETROIT LAKES  CLEAR     43  34  70 SW9       29.90R
MOORHEAD       CLEAR     39  32  75 SW8       29.90R
PARK RAPIDS    SUNNY     43  36  76 W8        29.87R
MAHNOMEN       FAIR      40  34  78 SW13      29.87R
$$
MNZ006-009>011-018-025>026-221500-
   North Central Minnesota

CITY           SKY/WX    TMP DP  RH WIND       PRES   REMARKS
BAUDETTE       CLEAR     44  36  73 SW15G30   29.71R
FLAG ISLAND    CLOUDY    45  39  81 SW16G24   29.63R
INTL FALLS     SUNNY     43  39  86 SW12      29.72R
WASKISH        SUNNY     46  39  76 SW16G29   29.77R
BIG FORK       SUNNY     45  37  76 SW10      29.79R
LONGVILLE      SUNNY     43  37  81 SW10      29.85R
GRAND RAPIDS   MOSUNNY   43  38  82 SW8       29.85R
CRANE LAKE     PTSUNNY   45  39  81 S7        29.78R
ORR            CLOUDY    43  37  81 SW8       29.76R
COOK           CLOUDY    45  39  81 SW7       29.80R
WALKER         FAIR      43  34  71 W10G18    29.84R
$$
MNZ012-019>021-037-221500-
   Northeast Minnesota

CITY           SKY/WX    TMP DP  RH WIND       PRES   REMARKS
DULUTH         CLOUDY    45  41  86 W13       29.85R
ELY            CLOUDY    46  39  76 SW10G16   29.79R
HIBBING        CLOUDY    43  39  86 SW6       29.83R
EVELETH        CLOUDY    44  42  92 SW9       29.84R
DULUTH HARBOR  CLOUDY    48  45  87 SW9       29.88R
TWO HARBORS    CLOUDY    50  43  76 SW9       29.83R
SILVER BAY     CLOUDY    48  45  87 SW6       29.82R
GRAND MARAIS     N/A     47  45  93 W9        29.80R
G MARAIS ARPRT PTSUNNY   45  39  81 SW8G18    29.80R
$$
MNZ029>031-032-039>041-046>048-054>057-064-221500-
   West Central Minnesota

CITY           SKY/WX    TMP DP  RH WIND       PRES   REMARKS
FERGUS FALLS   SUNNY     39  34  81 W8        29.94S
WHEATON        SUNNY     41  34  75 SW9       29.96F
MORRIS         SUNNY     41  37  87 W8        29.95R
ALEXANDRIA     SUNNY     43  38  82 SW9       29.95R
ELBOW LAKE     FAIR      39  35  86 SW8       29.94R
WADENA         SUNNY     43  36  75 SW7       29.90R
GLENWOOD       SUNNY     43  37  81 SW9       29.95R
APPLETON       SUNNY     43  36  75 W9        29.97R
BENSON         SUNNY     41  36  81 W8        29.98R
ORTONVILLE     SUNNY     43  34  70 CALM      29.97R
MADISON        SUNNY     45  37  76 W6        29.98S
WILLMAR        FAIR      41  37  87 SW6       29.99R
$$
MNZ033>034-036-042>043-049>051-058-059-221500-
   Central Minnesota

CITY           SKY/WX    TMP DP  RH WIND       PRES   REMARKS
ST CLOUD       CLOUDY    42  40  92 W7        29.95R
SAUK CENTRE    FAIR      41  37  85 SW7       29.95R
PAYNESVILLE    SUNNY     40  38  95 W5        29.96S
AITKIN         MOSUNNY   41  37  87 SW7       29.87S
PINE RIVER     SUNNY     39  34  81 SW5       29.91R
BRAINERD       SUNNY    N/A N/A N/A SW10      29.90R
STAPLES        SUNNY     43  36  75 SW8       29.90R
LONG PRAIRIE   FAIR      39  36  87 S6        29.94R
LITTLE FALLS   SUNNY     37  34  87 S3        29.93S
LITCHFIELD     CLOUDY    43  39  87 CALM      29.97S
BUFFALO        MOSUNNY   45  40  83 SW5       29.98R
MAPLE LAKE     CLOUDY    45  41  86 SW7       29.97S
HUTCHINSON     SUNNY     43  40  89 SW3       29.99S
$$
MNZ037-044-045-052-053-221500-
   East Central Minnesota

CITY           SKY/WX    TMP DP  RH WIND       PRES   REMARKS
PRINCETON      MOSUNNY   46  41  81 SW5       29.95R
MORA           PTSUNNY   45  41  87 SW8       29.94R
CAMBRIDGE      PTSUNNY   48  41  76 SW6       29.95R
RUSH CITY      CLOUDY    47  40  77 SW6       29.94R
MOOSE LAKE     CLOUDY    45  41  87 CALM      29.88R
HINCKLEY       FAIR      45  43  93 SW8       29.92R
CLOQUET        PTSUNNY   46  39  76 SW9       29.87R
MCGREGOR       CLOUDY    43  39  87 SW8       29.88R
$$
MNZ071>073-080-081-089-090-097-098-221500-
   Southwest Minnesota

CITY           SKY/WX    TMP DP  RH WIND       PRES   REMARKS
MONTEVIDEO     SUNNY     43  37  81 W6        29.98S
GRANITE FALLS  SUNNY     40  37  87 SW6       30.01R
CANBY          SUNNY     45  35  66 SW12      30.00S
MARSHALL       SUNNY     44  36  73 W12       30.01R
REDWOOD FALLS  CLOUDY    44  35  70 SW9       29.99R
OLIVIA         SUNNY     39  36  87 SW6       29.98S
PIPESTONE      SUNNY     34  32  93 W3        30.03R
WORTHINGTON    SUNNY     41  36  82 SW9       30.04
JACKSON        SUNNY     43  36  75 W6        30.03R
TRACY          SUNNY     43  37  79 SW8       30.01S
SLAYTON        SUNNY     42  35  77 SW7       30.03S
$$
MNZ065>067-074>077-082>085-091>093-221500-
   South Central Minnesota

CITY           SKY/WX    TMP DP  RH WIND       PRES   REMARKS
MANKATO        PTSUNNY   45  40  82 W6        30.00S
NEW ULM          N/A     43  37  81 CALM      30.00S
ST JAMES       CLOUDY    43  39  87 SW5       30.02S
FAIRMONT       CLOUDY    44  39  82 W8        30.03R
GLENCOE        CLOUDY    44  41  87 SW6       29.97F
FARIBAULT      CLOUDY    48  43  81 W6        29.99S
OWATONNA       CLOUDY    46  43  87 W3        29.99S
WASECA         CLOUDY    45  41  87 W5        30.01S
$$
MNZ078>079-086>088-094>096-221500-
   Southeast Minnesota

CITY           SKY/WX    TMP DP  RH WIND       PRES   REMARKS
ROCHESTER      CLOUDY    48  43  82 W9        29.99R
RED WING       CLOUDY    52  39  62 W3        29.96S
STANTON        CLOUDY    49  42  78 SW5       29.97S
DODGE CENTER   CLOUDY    46  39  76 W12       29.98S
WINONA         CLOUDY    52  45  76 NW6       29.97S
AUSTIN         CLOUDY    48  41  76 NW7       29.99R
PRESTON        CLOUDY    47  42  81 NW7       29.98R
$$
ABBREVIATIONS USED IN REMARKS
   TC - TEMPERATURES IN CELSIUS
  WCI - WIND CHILL INDEX
   HX - HEAT INDEX
  VSB - VISIBILITY
$$




USA.gov is the U.S. government's official web portal to all federal, state and local government web resources and services.